FW2887 Weather Reports


time (UTC)temp
C
wind
direction
speed
KPH
gust
KPH
rain 1hr
cm
rain 24hr
cm
rain mn
cm
humidity
%
barometer
mb
20260508025712 12 321 0.0 0.0 0.00 1.24 1.19 92 1013.2
20260508025240 12 321 0.0 0.0 0.00 1.24 1.19 92 1013.0
20260508024726 12 321 0.0 0.0 0.00 1.24 1.19 92 1012.9
20260508024227 12 321 0.0 0.0 0.00 1.24 1.19 92 1012.9
20260508023729 12 321 0.0 0.0 0.00 1.24 1.19 92 1012.8
20260508023235 12 37 0.0 0.0 0.00 1.24 1.19 92 1012.8
20260508022714 12 38 0.0 0.0 0.00 1.24 1.19 92 1012.8
20260508022219 12 38 0.0 0.0 0.00 1.24 1.19 92 1012.6
20260508021721 12 37 0.0 0.0 0.00 1.24 1.19 92 1012.6
20260508021221 12 37 0.0 0.0 0.00 1.24 1.19 92 1012.5
20260508020728 12 321 0.0 0.0 0.00 1.24 1.19 92 1012.5
20260508020231 12 321 0.0 0.0 0.00 1.24 1.19 92 1012.6
20260508015739 12 321 0.0 0.0 0.00 1.24 1.19 92 1012.5
20260508015219 12 321 0.0 0.0 0.00 1.24 1.19 92 1012.4
20260508014719 12 38 0.0 0.0 0.00 1.24 1.19 91 1012.3
20260508014226 12 321 0.0 0.0 0.00 1.24 1.19 91 1012.2
20260508013727 12 321 0.0 0.0 0.00 1.24 1.19 91 1012.1
20260508013234 12 37 0.0 0.0 0.00 1.24 1.19 91 1011.9
20260508012733 12 38 0.0 0.0 0.00 1.24 1.19 91 1011.8
20260508012219 12 321 0.0 0.0 0.00 1.24 1.19 91 1011.9
20260508011721 12 321 0.0 0.0 0.00 1.24 1.19 91 1011.9
20260508011228 12 321 0.0 0.0 0.00 1.24 1.19 91 1012.0
20260508010729 12 321 0.0 0.0 0.00 1.24 1.19 91 1012.0
20260508010230 12 321 0.0 0.0 0.00 1.24 1.19 91 1011.9
20260508005737 12 321 0.0 0.0 0.00 1.24 1.19 91 1011.7
20260508005217 12 321 0.0 0.0 0.00 1.24 1.19 91 1011.7
20260508004715 12 321 0.0 0.0 0.00 1.24 1.19 91 1011.7
20260508004222 12 321 0.0 0.0 0.00 1.24 1.19 91 1011.6
20260508003742 12 321 0.0 0.0 0.00 1.24 1.19 91 1011.4
20260508003228 12 321 0.0 0.0 0.00 1.24 1.19 91 1011.4
20260508002755 12 321 0.0 0.0 0.00 1.24 1.19 91 1011.4
20260508002216 12 321 0.0 0.0 0.00 1.24 1.19 91 1011.4
20260508001717 12 321 0.0 0.0 0.00 1.24 1.19 91 1011.2
20260508001242 12 321 0.0 0.0 0.00 1.24 1.19 91 1011.2
20260508000723 12 321 0.0 0.0 0.00 1.24 1.19 91 1011.4
20260508000230 12 321 0.0 0.0 0.00 1.24 1.19 91 1011.4
20260507235730 12 321 0.0 1.6 0.00 1.24 1.19 91 1011.3
20260507235212 12 321 0.0 1.6 0.00 1.24 1.19 91 1011.2
20260507234723 12 321 0.0 3.2 0.00 1.24 1.19 91 1011.1
20260507234224 12 321 1.6 3.2 0.00 1.24 1.19 91 1011.0
20260507233755 12 321 0.0 0.0 0.00 1.24 1.19 91 1011.1
20260507233215 12 321 0.0 0.0 0.00 1.24 1.19 91 1010.9
20260507232716 12 321 0.0 3.2 0.00 1.24 1.19 91 1010.8
20260507232225 12 321 0.0 3.2 0.00 1.24 1.19 91 1010.5
20260507231724 12 321 1.6 3.2 0.00 1.24 1.19 91 1010.5
20260507231224 12 321 0.0 4.8 0.00 1.24 1.19 91 1010.3
20260507230731 12 321 3.2 4.8 0.00 1.24 1.19 90 1010.4
20260507230213 12 321 1.6 6.4 0.00 1.24 1.19 91 1010.3
20260507225742 12 321 1.6 6.4 0.00 1.24 1.19 91 1010.2
20260507225243 12 321 1.6 9.7 0.00 1.24 1.19 91 1010.3
20260507224728 12 55 3.2 9.7 0.00 1.24 1.19 91 1010.3
20260507224228 12 321 3.2 9.7 0.00 1.24 1.19 91 1010.3
20260507223737 12 50 1.6 12.9 0.00 1.24 1.19 91 1010.3
20260507223217 12 91 3.2 12.9 0.00 1.24 1.19 91 1010.3
20260507222740 12 49 3.2 6.4 0.00 1.24 1.19 91 1010.0
20260507222224 12 321 1.6 6.4 0.00 1.24 1.19 91 1010.3
20260507221725 12 321 1.6 9.7 0.00 1.24 1.19 91 1010.5
20260507221231 12 321 4.8 9.7 0.00 1.24 1.19 91 1010.7
20260507220713 12 321 3.2 8.0 0.00 1.24 1.19 92 1010.7
20260507220214 12 321 3.2 8.0 0.00 1.24 1.19 92 1010.8
20260507215718 12 321 1.6 4.8 0.00 1.24 1.19 92 1010.6
20260507215220 12 321 3.2 6.4 0.00 1.24 1.19 92 1010.5
20260507214719 12 321 1.6 8.0 0.00 1.24 1.19 92 1010.3
20260507214225 12 321 3.2 8.0 0.00 1.24 1.19 92 1010.2
20260507213727 12 57 1.6 4.8 0.00 1.24 1.19 92 1010.1
20260507213229 12 321 1.6 4.8 0.00 1.24 1.19 92 1010.3
20260507212737 12 321 0.0 4.8 0.00 1.24 1.19 93 1010.3
20260507212217 12 84 3.2 6.4 0.00 1.24 1.19 93 1010.2
20260507211746 12 321 1.6 11.3 0.00 1.24 1.19 93 1010.1
20260507211225 12 26 3.2 11.3 0.00 1.24 1.19 93 1010.1
20260507210726 12 87 4.8 6.4 0.00 1.24 1.19 93 1010.0
20260507210233 12 43 3.2 9.7 0.00 1.24 1.19 93 1010.3
20260507205715 12 10 3.2 9.7 0.00 1.24 1.19 93 1010.3
20260507204250 12 321 3.2 6.4 0.00 1.24 1.19 93 1009.9
20260507203505 12 321 3.2 14.5 0.00 1.24 1.19 93 1009.8
20260507202739 12 321 3.2 8.0 0.00 1.24 1.19 93 1010.0
20260507202415 12 321 3.2 14.5 0.00 1.24 1.19 93 1009.9
20260507194232 12 59 4.8 12.9 0.00 1.32 1.19 93 1009.8
20260507193716 12 32 4.8 12.9 0.00 1.32 1.19 93 1009.8
20260507193226 12 321 4.8 12.9 0.00 1.32 1.19 93 1010.0
20260507192750 13 321 4.8 8.0 0.00 1.32 1.19 93 1010.0
20260507192213 13 321 3.2 8.0 0.00 1.32 1.19 93 1010.0
20260507191746 13 321 3.2 8.0 0.00 1.32 1.19 93 1009.9
20260507191232 13 321 4.8 8.0 0.00 1.32 1.19 93 1009.9
20260507190714 13 321 3.2 8.0 0.00 1.32 1.19 93 1009.9
20260507190217 13 68 3.2 8.0 0.00 1.32 1.19 93 1009.9
20260507185728 13 321 3.2 8.0 0.03 1.40 1.19 93 1009.8
20260507185230 13 321 3.2 8.0 0.03 1.40 1.19 93 1009.6
20260507184730 13 45 4.8 12.9 0.03 1.40 1.19 93 1009.6
20260507184238 13 321 3.2 12.9 0.03 1.40 1.19 93 1009.6
20260507183721 13 321 6.4 9.7 0.03 1.40 1.19 93 1009.7
20260507183223 13 321 1.6 9.7 0.03 1.40 1.19 93 1009.8
20260507182731 13 55 3.2 14.5 0.03 1.40 1.19 93 1009.5
20260507182215 13 321 6.4 14.5 0.03 1.40 1.19 93 1009.3
20260507181720 13 321 3.2 12.9 0.05 1.40 1.19 93 1009.1
20260507181223 13 321 6.4 12.9 0.10 1.40 1.19 93 1009.4
20260507180735 13 321 6.4 11.3 0.18 1.40 1.19 93 1009.5
20260507180219 13 356 4.8 9.7 0.25 1.40 1.19 93 1009.5
20260507175722 13 40 4.8 11.3 0.30 1.37 1.17 93 1009.6
20260507175230 13 44 6.4 14.5 0.41 1.37 1.17 93 1009.1
20260507174713 13 49 8.0 14.5 0.53 1.37 1.17 93 1009.6
20260507174215 13 31 3.2 14.5 0.53 1.37 1.17 94 1010.3
20260507173727 13 59 4.8 14.5 0.56 1.37 1.17 93 1010.3
20260507173227 14 33 6.4 14.5 0.56 1.37 1.17 93 1010.0
20260507172729 14 50 3.2 8.0 0.56 1.37 1.17 93 1009.5
20260507172238 14 15 6.4 8.0 0.56 1.37 1.17 94 1009.4
20260507171718 15 45 3.2 11.3 0.51 1.32 1.12 94 1009.0
20260507171247 15 54 4.8 14.5 0.46 1.27 1.07 94 1009.0
20260507170736 15 349 3.2 14.5 0.41 1.22 1.02 94 1008.9
20260507170241 15 61 3.2 8.0 0.33 1.14 0.94 93 1008.7
20260507165728 15 57 4.8 8.0 0.23 1.04 0.84 93 1008.6
20260507165231 15 43 1.6 12.9 0.13 0.94 0.74 93 1008.9
20260507164714 15 43 6.4 12.9 0.03 0.84 0.64 93 1009.1
20260507164221 15 28 3.2 14.5 0.03 0.84 0.64 92 1008.8
20260507163725 16 12 6.4 19.3 0.03 0.81 0.61 92 1009.0
20260507163234 18 65 8.0 19.3 0.03 0.81 0.61 94 1009.2
20260507162734 18 34 1.6 3.2 0.03 0.81 0.61 94 1009.2
20260507162222 18 6 0.0 3.2 0.03 0.81 0.61 94 1009.5
20260507161724 18 359 0.0 1.6 0.03 0.81 0.61 94 1009.7
20260507161228 18 342 0.0 1.6 0.03 0.81 0.61 94 1009.6
20260507160718 18 357 0.0 3.2 0.05 0.81 0.61 94 1009.6
20260507160242 18 357 1.6 8.0 0.05 0.81 0.61 94 1009.6
20260507155727 18 358 1.6 8.0 0.05 0.81 0.61 94 1009.8
20260507155230 18 316 0.0 0.0 0.05 0.81 0.61 94 1009.6
20260507154714 19 292 0.0 0.0 0.05 0.81 0.61 94 1009.6
20260507154223 19 292 0.0 0.0 0.03 0.79 0.58 94 1009.6
20260507153727 19 236 0.0 0.0 0.05 0.79 0.58 94 1009.3
20260507153257 19 236 0.0 0.0 0.05 0.79 0.58 94 1009.1
20260507152721 19 236 0.0 0.0 0.05 0.79 0.58 94 1009.2
20260507152225 19 236 0.0 0.0 0.05 0.79 0.58 94 1009.4
20260507151714 19 236 0.0 0.0 0.08 0.79 0.58 94 1009.5
20260507151215 19 236 0.0 0.0 0.08 0.79 0.58 94 1009.5
20260507150720 19 236 0.0 0.0 0.05 0.76 0.56 94 1009.5
20260507150250 19 236 0.0 0.0 0.05 0.76 0.56 94 1009.5
20260507145737 19 236 0.0 0.0 0.05 0.76 0.56 94 1009.5
20260507145222 19 236 0.0 0.0 0.05 0.76 0.56 94 1009.3
20260507144729 19 236 0.0 0.0 0.05 0.76 0.56 94 1009.6
20260507144213 19 236 0.0 0.0 0.08 0.76 0.56 94 1009.7
20260507143714 19 236 0.0 0.0 0.05 0.74 0.53 94 1009.5
20260507143224 19 236 0.0 0.0 0.05 0.74 0.53 94 1009.4
20260507142729 19 236 0.0 0.0 0.05 0.74 0.53 94 1009.4
20260507142212 19 236 0.0 0.0 0.05 0.74 0.53 94 1009.4
20260507141743 19 236 0.0 0.0 0.03 0.71 0.51 94 1009.6
20260507141226 19 236 0.0 0.0 0.05 0.71 0.51 94 1009.6
20260507140717 19 232 0.0 6.4 0.05 0.71 0.51 94 1009.5
20260507140218 19 232 1.6 6.4 0.05 0.71 0.51 94 1009.5
20260507135722 19 247 0.0 4.8 0.05 0.71 0.51 94 1009.6
20260507135250 18 269 0.0 4.8 0.05 0.71 0.51 94 1009.8
20260507134713 18 266 1.6 9.7 0.05 0.71 0.51 94 1010.0
20260507134221 18 286 1.6 9.7 0.05 0.69 0.48 94 1010.0
20260507133728 18 253 0.0 4.8 0.05 0.69 0.48 94 1010.0
20260507133212 18 254 1.6 4.8 0.05 0.69 0.48 94 1010.1
20260507132718 18 245 0.0 6.4 0.05 0.69 0.48 94 1010.0
20260507132230 18 236 0.0 6.4 0.05 0.69 0.48 94 1010.0
20260507131751 18 255 0.0 4.8 0.05 0.69 0.48 94 1009.9
20260507131212 18 259 0.0 0.0 0.03 0.66 0.46 94 1009.8
20260507130721 18 259 0.0 0.0 0.05 0.66 0.46 94 1009.9
20260507130244 18 259 0.0 1.6 0.05 0.66 0.46 94 1009.8
20260507125713 18 259 0.0 1.6 0.05 0.66 0.46 94 1009.9
20260507125215 18 232 0.0 0.0 0.05 0.66 0.46 94 1010.1
20260507124718 18 232 0.0 0.0 0.05 0.66 0.46 94 1010.1
20260507124231 18 232 0.0 0.0 0.03 0.64 0.43 94 1010.1
20260507123712 18 232 0.0 0.0 0.03 0.64 0.43 94 1010.0
20260507123217 18 232 0.0 0.0 0.03 0.64 0.43 94 1010.0
20260507122728 18 232 0.0 0.0 0.03 0.64 0.43 94 1010.1
20260507122230 18 232 0.0 0.0 0.03 0.64 0.43 94 1010.0
20260507121712 18 232 0.0 0.0 0.05 0.64 0.43 94 1009.9
20260507121216 18 232 0.0 0.0 0.05 0.64 0.43 94 1010.0
20260507120726 18 232 0.0 0.0 0.03 0.61 0.41 94 1010.0
20260507120234 18 232 0.0 0.0 0.03 0.61 0.41 94 1010.2
20260507115714 18 232 0.0 0.0 0.03 0.61 0.41 94 1010.3
20260507115220 18 232 0.0 0.0 0.03 0.61 0.41 94 1010.2
20260507114733 18 232 0.0 0.0 0.03 0.61 0.41 94 1010.0
20260507114215 18 232 0.0 0.0 0.03 0.61 0.41 94 1010.5
20260507113720 18 232 0.0 0.0 0.03 0.61 0.41 94 1010.5
20260507113249 18 232 0.0 0.0 0.03 0.61 0.41 94 1010.5
20260507112734 18 232 0.0 0.0 0.03 0.61 0.41 94 1010.5
20260507112223 18 232 0.0 0.0 0.03 0.61 0.41 94 1010.4
20260507111727 18 232 0.0 0.0 0.00 0.58 0.38 94 1010.6
20260507111236 18 232 0.0 0.0 0.00 0.58 0.38 94 1010.5
20260507110720 17 232 0.0 0.0 0.00 0.58 0.38 94 1010.5
20260507110223 17 232 0.0 0.0 0.00 0.58 0.38 94 1010.4
20260507105731 18 232 0.0 0.0 0.00 0.58 0.38 94 1010.2
20260507105212 18 232 0.0 0.0 0.00 0.58 0.38 94 1010.0
20260507104716 18 232 0.0 0.0 0.00 0.58 0.38 94 1010.0
20260507104228 17 232 0.0 0.0 0.00 0.58 0.38 94 1009.9
20260507103714 17 232 0.0 1.6 0.00 0.58 0.38 94 1010.0
20260507103220 17 232 0.0 1.6 0.00 0.58 0.38 94 1010.2
20260507102731 17 253 0.0 1.6 0.00 0.58 0.38 94 1010.0
20260507102215 17 253 0.0 1.6 0.00 0.58 0.38 94 1009.9
20260507101720 17 253 0.0 1.6 0.00 0.58 0.38 94 1009.9
20260507101222 17 252 0.0 1.6 0.00 0.58 0.38 93 1009.9
20260507100719 17 211 0.0 0.0 0.03 0.58 0.38 94 1010.0
20260507100223 17 211 0.0 0.0 0.03 0.58 0.38 93 1010.0
20260507095749 17 211 0.0 0.0 0.03 0.58 0.38 93 1010.0
20260507095218 17 211 0.0 0.0 0.03 0.58 0.38 93 1010.0
20260507094723 17 211 0.0 0.0 0.03 0.58 0.38 93 1009.9
20260507094233 17 211 0.0 0.0 0.03 0.58 0.38 93 1010.1
20260507093714 17 211 0.0 0.0 0.03 0.58 0.38 93 1010.2
20260507093240 17 211 0.0 0.0 0.03 0.58 0.38 93 1010.0
20260507092728 17 211 0.0 0.0 0.03 0.58 0.38 93 1010.1
20260507092231 17 211 0.0 0.0 0.03 0.58 0.38 93 1010.0
20260507091717 17 209 0.0 0.0 0.03 0.58 0.38 93 1009.9
20260507091227 17 209 0.0 0.0 0.03 0.58 0.38 93 1010.0
20260507090727 17 209 0.0 0.0 0.00 0.56 0.36 93 1010.0
20260507090212 17 210 0.0 1.6 0.00 0.56 0.36 93 1010.2
20260507085725 18 210 0.0 1.6 0.00 0.56 0.36 93 1010.2
20260507085228 18 173 0.0 1.6 0.00 0.56 0.36 93 1010.3
20260507084712 18 173 0.0 0.0 0.00 0.56 0.36 93 1010.3
20260507084216 18 173 0.0 0.0 0.00 0.56 0.36 93 1010.2
20260507083725 18 173 0.0 0.0 0.00 0.56 0.36 93 1010.1
20260507083224 18 232 0.0 0.0 0.00 0.56 0.36 93 1010.4
20260507082734 18 232 0.0 0.0 0.00 0.56 0.36 93 1010.7
20260507082240 18 232 0.0 0.0 0.00 0.56 0.36 93 1010.8
20260507081750 18 232 0.0 0.0 0.00 0.56 0.36 93 1010.9
20260507081213 18 232 0.0 0.0 0.00 0.56 0.36 93 1010.8
20260507080721 18 232 0.0 0.0 0.00 0.56 0.36 93 1010.5
20260507080251 18 232 0.0 0.0 0.00 0.56 0.36 93 1010.5
20260507075714 18 232 0.0 0.0 0.00 0.56 0.36 93 1010.3
20260507075216 18 232 0.0 1.6 0.00 0.56 0.36 93 1010.6
20260507074724 18 232 0.0 1.6 0.00 0.56 0.36 93 1010.6
20260507074227 18 232 0.0 1.6 0.00 0.56 0.36 93 1010.7
20260507073735 18 232 0.0 1.6 0.03 0.56 0.36 93 1011.0
20260507073218 18 232 0.0 0.0 0.03 0.56 0.36 93 1011.0
20260507072742 18 232 0.0 0.0 0.03 0.56 0.36 93 1011.0
20260507072229 18 232 0.0 0.0 0.03 0.56 0.36 93 1011.1
20260507071713 18 232 0.0 0.0 0.05 0.56 0.36 93 1011.1
20260507071217 18 232 0.0 0.0 0.05 0.56 0.36 93 1011.0
20260507070727 18 232 0.0 3.2 0.05 0.56 0.36 93 1011.1
20260507070230 18 232 0.0 3.2 0.05 0.56 0.36 93 1011.3
20260507065714 18 232 0.0 3.2 0.08 0.56 0.36 93 1011.0
20260507065224 18 232 0.0 3.2 0.08 0.56 0.36 93 1011.1
20260507064726 18 233 0.0 8.0 0.10 0.56 0.36 92 1011.3
20260507064216 18 236 1.6 8.0 0.10 0.56 0.36 92 1011.6
20260507063722 18 193 0.0 4.8 0.10 0.53 0.33 92 1011.8
20260507063251 18 193 0.0 4.8 0.10 0.53 0.33 92 1011.9
20260507062715 18 297 0.0 0.0 0.13 0.53 0.33 92 1012.0
20260507062220 18 297 0.0 0.0 0.13 0.53 0.33 92 1011.8
20260507061728 18 297 0.0 0.0 0.13 0.51 0.30 92 1011.6
20260507061212 18 297 0.0 0.0 0.15 0.51 0.30 92 1011.4
20260507060718 18 297 0.0 0.0 0.15 0.51 0.30 92 1011.6
20260507060228 18 297 0.0 0.0 0.18 0.51 0.30 92 1011.8
20260507055726 18 297 0.0 0.0 0.15 0.48 0.28 92 1011.8
20260507055238 18 297 0.0 0.0 0.18 0.48 0.28 92 1011.8
20260507054720 18 297 0.0 0.0 0.18 0.46 0.25 92 1011.7
20260507054223 18 297 0.0 0.0 0.18 0.46 0.25 92 1011.8
20260507053737 18 297 0.0 0.0 0.18 0.43 0.23 92 1011.8
20260507053220 18 297 0.0 0.0 0.20 0.43 0.23 92 1011.6
20260507052725 18 297 0.0 4.8 0.18 0.41 0.20 92 1011.9
20260507052224 18 289 1.6 9.7 0.20 0.41 0.20 91 1012.0
20260507051734 18 186 1.6 9.7 0.18 0.38 0.18 91 1011.3
20260507051219 18 280 0.0 11.3 0.15 0.36 0.15 91 1011.9
20260507050728 18 229 3.2 14.5 0.15 0.36 0.15 91 1012.3
20260507050212 18 286 1.6 14.5 0.13 0.33 0.13 91 1011.7
20260507045715 18 228 3.2 8.0 0.13 0.33 0.13 91 1011.6
20260507045219 18 180 1.6 4.8 0.13 0.30 0.10 91 1011.3
20260507044728 18 228 0.0 8.0 0.10 0.28 0.08 90 1011.6
20260507044229 18 234 1.6 9.7 0.10 0.28 0.08 90 1012.0
20260507043738 18 207 3.2 9.7 0.08 0.25 0.05 90 1013.0
20260507043221 18 235 1.6 9.7 0.05 0.23 0.03 89 1013.2
20260507042725 18 189 1.6 19.3 0.05 0.23 0.03 89 1013.4
20260507042234 19 232 3.2 19.3 0.03 0.20 0.00 89 1013.5
20260507041717 19 262 3.2 14.5 0.05 0.20 0.00 89 1013.5
20260507041217 19 263 0.0 0.0 0.05 0.20 0.00 88 1013.5
20260507040718 19 261 0.0 0.0 0.05 0.20 0.00 88 1013.2
20260507040228 19 229 0.0 0.0 0.05 0.20 0.00 87 1013.0
20260507035734 19 228 0.0 0.0 0.05 0.20 0.20 87 1012.9
20260507035220 19 228 0.0 0.0 0.03 0.18 0.18 87 1012.7
20260507034724 19 261 0.0 0.0 0.03 0.18 0.18 86 1012.4
20260507034255 19 273 0.0 0.0 0.03 0.18 0.18 86 1012.1
20260507033720 19 273 0.0 0.0 0.03 0.18 0.18 86 1011.9
20260507033228 20 171 0.0 1.6 0.03 0.18 0.18 85 1011.9
20260507032730 20 223 0.0 1.6 0.03 0.18 0.18 85 1012.3
20260507032214 20 232 0.0 0.0 0.03 0.18 0.18 85 1012.5
20260507031727 20 235 0.0 8.0 0.00 0.15 0.15 84 1012.4
20260507031229 20 219 1.6 8.0 0.00 0.15 0.15 84 1012.5
20260507030714 20 218 0.0 0.0 0.00 0.15 0.15 84 1012.3
20260507030223 20 218 0.0 0.0 0.00 0.15 0.15 83 1012.2